Overview Statistics Trail Chart Weather Telemetry Raw packets
 

This is the latest recevied weather packets stored in our database for station/object DB0OHL. If no packets are shown the sender has not sent any weather packets the latest 10 day(s).

<< 24 25 26 27 28 29 30 >>
Time Temp. Humidity Pressure Rain* Wind** Luminosity Snow
1777449352 12.78° C 55% 1026.2 hPa 0 mm - - -
1777448750 12.22° C 57% 1026.1 hPa 0 mm - - -
1777448147 12.22° C 58% 1026.2 hPa 0 mm - - -
1777447545 11.67° C 59% 1026.3 hPa 0 mm - - -
1777446942 11.11° C 60% 1026.2 hPa 0 mm - - -
1777446340 11.11° C 61% 1026.3 hPa 0 mm - - -
1777445737 10.56° C 64% 1026.4 hPa 0 mm - - -
1777445135 10.56° C 64% 1026.2 hPa 0 mm - - -
1777444532 10° C 65% 1026.4 hPa 0 mm - - -
1777443930 9.44° C 67% 1026.2 hPa 0 mm - - -
1777443327 8.89° C 68% 1026.2 hPa 0 mm - - -
1777442725 8.89° C 68% 1026.2 hPa 0 mm - - -
1777442122 8.33° C 70% 1026.1 hPa 0 mm - - -
1777441519 8.33° C 70% 1026 hPa 0 mm - - -
1777440917 7.78° C 70% 1025.9 hPa 0 mm - - -
1777440375 7.78° C 71% 1025.8 hPa 0 mm - - -
1777439772 7.22° C 72% 1025.7 hPa 0 mm - - -
1777439170 7.22° C 72% 1025.6 hPa 0 mm - - -
1777438567 6.67° C 73% 1025.6 hPa 0 mm - - -
1777437965 6.67° C 72% 1025.4 hPa 0 mm - - -
1777437362 6.67° C 72% 1025.4 hPa 0 mm - - -
1777436760 6.67° C 72% 1025.4 hPa 0 mm - - -
1777436157 6.67° C 73% 1025.3 hPa 0 mm - - -
1777435555 6.67° C 73% 1025.3 hPa 0 mm - - -
1777434952 6.67° C 72% 1025.3 hPa 0 mm - - -

* Rain latest hour (hover to see other rain measurements)
** Current wind speed in m/s (hover to see current wind gust speed)